This is the latest recevied weather packets stored in our database for station/object KD9WYV. If no packets are shown the sender has not sent any weather packets the latest 1 day(s).
| Time | Temp. | Humidity | Pressure | Rain* | Wind** | Luminosity | Snow |
|---|---|---|---|---|---|---|---|
| 1778079920 | 13.89° C | 56% | 1014.3 hPa | 0 mm | - | 1132 W/m² | - |
| 1778079314 | 12.22° C | 59% | 1014.4 hPa | 0 mm | - | 971 W/m² | - |
| 1778078708 | 12.22° C | 60% | 1014 hPa | 0 mm | - | 998 W/m² | - |
| 1778077196 | 12.22° C | 65% | 1013.9 hPa | 0 mm | - | 399 W/m² | - |
| 1778076894 | 11.67° C | 66% | 1013.6 hPa | 0 mm | - | 672 W/m² | - |
| 1778075683 | 11.11° C | 74% | 1013.9 hPa | 0 mm | - | 494 W/m² | - |
| 1778075075 | 11.11° C | 72% | 1013.6 hPa | 0 mm | - | 308 W/m² | - |
| 1778074166 | 11.11° C | 78% | 1013.7 hPa | 0 mm | - | 169 W/m² | - |
| 1778073863 | 10.56° C | 78% | 1013.6 hPa | 0 mm | - | 147 W/m² | - |
| 1778072650 | 10° C | 85% | 1013.8 hPa | 0 mm | - | 102 W/m² | - |
| 1778071139 | 9.44° C | 94% | 1013.2 hPa | 0 mm | - | 83 W/m² | - |
| 1778070837 | 8.89° C | 95% | 1013 hPa | 0 mm | - | 79 W/m² | - |
| 1778069626 | 8.33° C | 97% | 1013.1 hPa | 0 mm | - | 66 W/m² | - |
| 1778068416 | 7.78° C | 97% | 1012.3 hPa | 0 mm | - | 52 W/m² | - |
| 1778065390 | 6.67° C | 97% | 1011.9 hPa | 0 mm | - | 21 W/m² | - |
| 1778065086 | 6.67° C | 96% | 1011.6 hPa | 0 mm | - | 15 W/m² | - |
| 1778064481 | 6.67° C | 96% | 1011.3 hPa | 0 mm | - | 7 W/m² | - |
| 1778063876 | 6.67° C | 96% | 1010.9 hPa | 0 mm | - | 3 W/m² | - |
| 1778062060 | 6.67° C | 96% | 1011.3 hPa | 0 mm | - | 0 W/m² | - |
| 1778061456 | 6.67° C | 96% | 1011.3 hPa | 0 mm | - | 0 W/m² | - |
| 1778060849 | 6.67° C | 95% | 1011.2 hPa | 0 mm | - | 0 W/m² | - |
| 1778060246 | 6.67° C | 95% | 1010.4 hPa | 0 mm | - | 0 W/m² | - |
| 1778059035 | 6.67° C | 96% | 1010.8 hPa | 0 mm | - | 0 W/m² | - |
| 1778058430 | 6.67° C | 96% | 1010.6 hPa | 0 mm | - | 0 W/m² | - |
| 1778057824 | 7.22° C | 96% | 1010.4 hPa | 0 mm | - | 0 W/m² | - |
* Rain latest hour (hover to see other rain measurements)
** Current wind speed in m/s (hover to see current wind gust speed)